Warning: Javascript must be enabled to use all the features on this page!


Page Loading - Please Wait...

Click to hideNews Bulletins

Peak Streamflow for the Nation

USGS 06402500 BEAVER CR NEAR BUFFALO GAP,SD

Fall River County, South Dakota
Hydrologic Unit Code 10120109
Latitude  43°28'00", Longitude 103°18'20" NAD27
Drainage area 127  square miles
Contributing drainage area 127  square miles
Gage datum 3,151.87 feet above NAVD88
Output formats
Table
Graph
Tab-separated file
peakfq (watstore) format
Reselect output format
Water
Year
Date Gage
Height
(feet)
Stream-
flow
(cfs)
1927 1927 18.003,Bm  
1937 1937-06-17 16.00  
1938 1938-09-04 16.463 11,7005
1939 1939-06-21 4.901 65.05
1940 1940-04-27 4.442 1165
1941 1941-04-13 6.41 8565
1942 1942-07-18 4.44 91.05
1943 1943-06-13 4.31 96.05
1944 1944-05-25 3.612 23.05
1945 1945-06-11 3.97 64.05
1946 1946-05-02 4.25 1025
1947 1947-06-20 7.36 1,2405
1948 1948-07-14 3.362 25.05
1949 1949-07-14 3.342 21.05
1950 1950-08-13 3.812 38.05
1951 1951-09-07 4.68 85.05
1952 1952-05-23 4.012 51.05
1953 1953   11.01,5,Bm
1954 1954-08-20 6.25 6705
1955 1955-08-10 10.15 2,7505
1956 1955-12-23 3.392 13.05
1957 1957-06-13 5.59 4325
1958 1958-07-30 6.06 3815
1959 1959-08-02 4.45 83.05
1960 1959-12-24 3.672 21.05
1961 1960-11-17 3.792 16.05
1962 1962-07-13 6.54 6015
1963 1963-06-07 8.36 1,4405
1964 1964-06-16 5.78 3045
1965 1965-05-24 5.87 3085
1966 1966-07-14 8.38 1,4305
1967 1967-06-23 5.09 1095
1968 1968-06-07 5.10 1115
1969 1969-07-17 5.89 3405
1970 1970-03-10 4.042 15.05
1971 1971-05-04 6.04 3405
1972 1972-06-10 7.09 8295
1973 1973-03-14 3.872 13.05
1974 1974-04-11 4.162 16.05
1975 1975-07-24 7.27 8615
1976 1976-07-31 7.80 6605
1977 1977-05-05 4.152 16.05
1978 1978-03-10 6.162 1575
1979 1979-07-23 6.40 1925
1980 1979-10-29 5.362 15.05
1981 1980-10-20 4.91 14.05
1982 1982-05-20 4.62 19.05
1983 1982-12-09 4.23 12.05
1984 1984-06-14 4.502 21.05
1985 1984-12-04 4.202 13.05
1986 1986-04-26 4.91 31.05
1987 1987-05-27 5.28 56.05
1988 1988-01-12   19.02,5
1989 1989-01-22 4.652 18.05
1990 1990-06-21 4.562 12.05
1991 1991-06-03 5.78 97.05
1992 1992-09-08 4.44 23.05
1993 1993-08-20 5.01 49.05
1994 1993-11-25 4.45 17.05
1995 1995-07-03 6.25 2035
1996 1995-10-02 4.18 14.05
1997 1997-07-29 7.62 2165
1998 1998-07-25 5.41 43.05
1999 1999-06-19 6.41 1155
2000 2000-04-20 4.69 32.05
2001 2001-07-09 5.70 71.05
2002 2002-03-09 4.681 22.05
2003 2003-01-23 4.29 21.05
2004 2004-02-07 4.651 29.05
2005 2005-05-07 7.66 2115
2006 2006-07-02 5.16 46.05
2007 2007-07-18 5.02 41.05
2008 2008-07-18 7.74 2195
2009 2009-06-14 4.432 23.05
2010 2010-05-24 8.21 2065
2011 2011-03-11 5.931 45.02,5
2012 2012-05-05 4.062 16.05
2013 2013-07-08 4.68 27.05
2014 2014-09-30 6.44 1085
2015 2015-05-25 7.83 2295
2016 2016-07-01 4.46 23.05
2017 2016-12-30 4.672 19.05
2018 2018-06-20 5.69 69.25
2019 2019-03-12 8.02 2505
2020 2019-10-01 4.61 21.75
2021 2021-05-24 4.462 21.05
?
  Peak Gage-Height Qualification Codes.
?
  Peak Streamflow Qualification Codes.